Location: Unspecified
(52.1384°N, 8.6525°W)
Time: 11:27:41
(UTC+00:00)

XW-2F - Pass Details

Date: 24 January 2021
Orbit: 500 x 519 km, 97.5° (Epoch: 24 February)

Event Time Altitude Azimuth Distance (km) Brightness Sun altitude
Rises 05:31:42 0° 31° (NNE) 2,660 ? -26.4°
Reaches altitude 10° 05:34:57 10° 61° (ENE) 1,765 ? -25.9°
Maximum altitude 05:36:38 13° 87° (E) 1,608 ? -25.7°
Drops below altitude 10° 05:38:18 10° 114° (ESE) 1,758 ? -25.4°
Sets 05:41:31 0° 144° (SE) 2,637 ? -24.9°
